Total_Precipitation_Accumulation
0.00 0.03 0.13 0.29 0.48 0.91 0.98 0.53 0.35 0.23 0.24 0.36 0.35 0.26 0.27 0.35 0.39 0.54 0.26 0.23 0.12 0.04 0.02 0.04 0.06 0.05 0.06 0.07 0.08 0.09 0.08 0.08 0.07 0.07 0.06 0.05 0.04 0.04 0.03 0.03 0.04 0.04 0.04 0.04 0.04 0.04 0.03 0.03 0.04
0.01 0.04 0.18 0.37 0.68 1.27 0.88 0.38 0.24 0.19 0.29 0.39 0.31 0.23 0.27 0.25 0.23 0.16 0.14 0.26 0.11 0.04 0.02 0.01 0.05 0.05 0.05 0.07 0.07 0.09 0.10 0.10 0.10 0.08 0.07 0.06 0.06 0.05 0.05 0.04 0.04 0.04 0.04 0.04 0.04 0.04 0.03 0.03 0.03
0.01 0.06 0.21 0.34 0.61 0.92 0.46 0.20 0.15 0.18 0.33 0.38 0.29 0.25 0.28 0.31 0.29 0.19 0.12 0.14 0.10 0.04 0.03 0.03 0.04 0.04 0.05 0.06 0.08 0.09 0.10 0.11 0.11 0.09 0.07 0.07 0.07 0.08 0.07 0.06 0.04 0.04 0.05 0.05 0.04 0.03 0.03 0.03 0.03
0.02 0.09 0.19 0.32 0.48 0.49 0.25 0.14 0.12 0.18 0.32 0.30 0.26 0.35 0.38 0.43 0.26 0.19 0.14 0.11 0.09 0.06 0.05 0.04 0.05 0.05 0.05 0.06 0.07 0.09 0.10 0.11 0.11 0.09 0.09 0.08 0.09 0.08 0.07 0.06 0.06 0.05 0.05 0.05 0.06 0.04 0.03 0.03 0.04
0.03 0.12 0.23 0.33 0.35 0.27 0.19 0.15 0.15 0.16 0.18 0.27 0.32 0.48 0.46 0.43 0.27 0.31 0.30 0.17 0.09 0.09 0.09 0.08 0.08 0.07 0.07 0.07 0.08 0.09 0.10 0.10 0.10 0.09 0.09 0.09 0.08 0.08 0.07 0.07 0.06 0.06 0.05 0.06 0.07 0.06 0.04 0.04 0.04
0.02 0.08 0.16 0.17 0.14 0.13 0.15 0.14 0.13 0.15 0.20 0.31 0.41 0.42 0.46 0.40 0.35 0.49 0.43 0.27 0.17 0.14 0.16 0.16 0.14 0.13 0.11 0.10 0.09 0.10 0.11 0.12 0.12 0.12 0.11 0.10 0.10 0.10 0.09 0.10 0.08 0.09 0.09 0.08 0.07 0.08 0.07 0.06 0.06
0.02 0.03 0.06 0.05 0.06 0.10 0.10 0.09 0.11 0.14 0.27 0.37 0.44 0.50 0.61 0.66 0.53 0.49 0.49 0.47 0.30 0.31 0.42 0.34 0.20 0.17 0.17 0.16 0.15 0.14 0.15 0.17 0.16 0.15 0.14 0.13 0.14 0.14 0.14 0.15 0.15 0.15 0.16 0.16 0.12 0.09 0.11 0.11 0.09
0.00 0.01 0.02 0.02 0.02 0.04 0.04 0.05 0.10 0.15 0.24 0.40 0.50 0.61 0.83 0.84 0.68 0.59 0.59 0.69 0.46 0.38 0.44 0.43 0.28 0.22 0.18 0.16 0.17 0.19 0.20 0.21 0.20 0.18 0.17 0.16 0.16 0.18 0.21 0.22 0.27 0.29 0.32 0.32 0.26 0.20 0.19 0.20 0.18
0.00 0.01 0.01 0.00 0.01 0.01 0.02 0.03 0.07 0.14 0.22 0.30 0.51 0.70 0.70 0.64 0.80 0.75 0.77 0.96 0.85 0.60 0.53 0.48 0.29 0.24 0.23 0.21 0.21 0.25 0.25 0.25 0.25 0.26 0.24 0.26 0.31 0.43 0.57 0.52 0.61 0.56 0.58 0.56 0.52 0.47 0.47 0.49 0.37
0.00 0.00 0.00 0.00 0.00 0.00 0.01 0.02 0.08 0.23 0.38 0.59 0.84 0.82 0.65 0.62 0.93 1.08 1.14 1.28 1.18 0.90 0.78 0.61 0.39 0.31 0.32 0.27 0.31 0.35 0.37 0.49 0.48 0.60 0.66 0.72 0.84 0.83 0.71 0.88 1.08 1.12 1.11 1.04 1.02 1.10 1.00 0.85 0.67
0.00 0.00 0.00 0.00 0.00 0.00 0.01 0.02 0.06 0.18 0.58 0.99 1.21 1.14 0.97 0.87 1.11 1.43 1.62 1.77 1.40 0.94 0.79 0.75 0.59 0.47 0.40 0.42 0.44 0.52 0.65 0.95 0.84 0.79 0.92 1.17 1.10 0.90 0.82 0.96 1.21 1.48 1.50 1.38 1.56 1.72 1.35 1.33 1.37
0.00 0.00 0.00 0.00 0.00 0.00 0.01 0.03 0.11 0.21 0.59 0.82 1.02 1.17 1.22 1.22 1.24 1.38 1.54 1.59 1.61 1.35 1.10 0.98 0.91 0.78 0.79 0.78 0.72 0.67 0.76 0.94 0.92 1.00 0.96 1.26 1.30 1.16 1.12 1.20 1.32 1.54 1.74 2.02 2.04 2.16 2.07 1.98 1.81
0.00 0.00 0.00 0.00 0.00 0.01 0.01 0.06 0.15 0.27 0.52 0.55 0.65 0.82 1.10 1.30 1.52 1.65 1.69 1.79 1.78 1.72 1.50 1.40 1.30 1.26 1.31 1.21 1.11 0.93 0.95 0.97 1.01 1.19 1.21 1.33 1.54 1.57 1.62 1.61 1.52 1.48 1.85 2.26 2.42 2.21 2.45 2.50 2.16
0.00 0.00 0.00 0.00 0.01 0.02 0.03 0.08 0.18 0.32 0.46 0.52 0.58 0.78 1.05 1.34 1.50 1.78 1.92 2.03 1.87 1.81 1.86 2.09 2.02 1.96 1.93 1.86 1.75 1.55 1.41 1.43 1.42 1.48 1.63 1.77 1.91 2.06 2.09 1.97 1.85 1.67 1.75 2.03 2.23 2.25 2.47 2.36 2.26
0.00 0.01 0.04 0.04 0.03 0.04 0.10 0.19 0.35 0.48 0.53 0.68 0.79 1.01 1.16 1.44 1.66 1.70 1.73 1.82 1.81 1.93 2.30 2.66 2.83 2.79 2.71 2.61 2.39 2.11 1.94 2.01 2.17 2.20 2.25 2.26 2.32 2.50 2.39 2.14 1.88 1.79 1.86 1.97 1.97 1.99 2.12 1.97 1.92
0.01 0.03 0.10 0.11 0.07 0.08 0.14 0.38 0.52 0.57 0.68 0.85 0.91 1.15 1.41 1.43 1.64 1.72 1.71 1.84 2.13 2.37 2.79 3.14 3.41 3.52 3.44 3.32 3.00 2.59 2.38 2.36 2.43 2.49 2.48 2.47 2.47 2.39 2.32 2.00 1.69 1.77 1.87 1.86 1.82 1.73 1.82 1.80 1.84
0.02 0.06 0.12 0.19 0.11 0.12 0.18 0.47 0.59 0.61 0.80 0.93 1.10 1.12 1.26 1.42 1.70 1.93 2.02 2.12 2.40 2.74 3.20 3.69 4.19 4.40 4.30 3.86 3.21 2.80 2.75 2.72 2.63 2.61 2.49 2.38 2.24 2.13 2.22 1.90 1.74 1.78 1.72 1.61 1.54 1.71 1.88 1.80 1.82
0.03 0.05 0.12 0.22 0.15 0.14 0.25 0.47 0.67 0.75 0.88 1.05 1.09 1.07 1.17 1.32 1.48 1.77 2.03 2.36 2.57 2.90 3.34 3.96 4.59 4.75 4.43 3.72 3.14 3.00 2.86 2.66 2.45 2.17 1.96 1.81 1.80 1.74 1.83 1.63 1.57 1.66 1.62 1.48 1.55 1.71 1.80 1.61 1.67
0.02 0.05 0.13 0.20 0.13 0.15 0.28 0.45 0.67 0.82 0.95 1.00 1.17 1.11 1.19 1.33 1.48 1.82 2.13 2.52 2.80 3.11 3.54 4.02 4.47 4.36 4.01 3.56 3.11 2.81 2.44 2.18 1.93 1.62 1.40 1.28 1.23 1.26 1.42 1.27 1.36 1.42 1.36 1.28 1.30 1.38 1.41 1.24 1.49
0.05 0.08 0.17 0.20 0.13 0.14 0.29 0.49 0.76 0.83 0.80 0.80 0.99 1.06 1.07 1.14 1.35 1.63 2.07 2.39 2.65 2.97 3.23 3.42 3.29 2.89 2.64 2.49 2.29 1.96 1.88 1.82 1.75 1.63 1.41 1.18 1.15 1.12 1.07 1.06 1.07 1.12 1.16 1.06 1.03 1.16 1.14 0.97 1.24
0.06 0.08 0.14 0.19 0.21 0.22 0.32 0.64 0.85 0.86 0.75 0.69 0.71 0.80 0.85 0.95 1.14 1.39 1.82 2.05 2.12 2.34 2.45 2.35 2.06 1.65 1.49 1.46 1.32 1.40 1.58 1.69 1.69 1.69 1.58 1.38 1.28 1.23 1.18 1.08 1.00 0.96 0.99 0.99 0.97 1.05 1.06 0.94 0.98
0.09 0.06 0.07 0.09 0.18 0.40 0.46 0.81 1.03 1.03 0.96 0.79 0.69 0.75 0.75 0.77 0.82 1.08 1.35 1.41 1.49 1.57 1.48 1.41 1.27 1.07 0.94 0.91 0.91 0.93 1.09 1.35 1.51 1.66 1.69 1.68 1.56 1.40 1.28 1.15 0.98 0.84 0.81 0.86 0.79 0.86 0.98 0.99 0.89
0.06 0.05 0.06 0.09 0.14 0.29 0.40 0.63 0.99 1.13 1.25 0.86 0.65 0.66 0.60 0.65 0.77 0.92 0.93 0.90 0.95 0.98 0.94 0.89 0.89 0.82 0.80 0.81 0.89 0.87 0.76 0.77 0.74 0.81 0.95 1.09 1.19 1.14 0.98 0.92 0.86 0.77 0.70 0.70 0.74 0.85 0.94 0.96 0.88
0.06 0.09 0.15 0.24 0.36 0.59 0.56 0.59 0.89 0.98 0.98 0.65 0.54 0.62 0.53 0.49 0.56 0.65 0.65 0.64 0.64 0.66 0.68 0.76 0.81 0.82 0.79 0.81 0.81 0.79 0.73 0.73 0.69 0.69 0.72 0.69 0.72 0.73 0.69 0.67 0.70 0.69 0.67 0.68 0.68 0.74 0.84 0.92 0.96
0.08 0.15 0.46 0.80 1.12 1.13 0.62 0.61 0.79 0.69 0.64 0.63 0.54 0.52 0.49 0.40 0.39 0.36 0.36 0.37 0.38 0.38 0.40 0.53 0.60 0.62 0.59 0.59 0.62 0.62 0.68 0.69 0.63 0.56 0.52 0.50 0.48 0.51 0.55 0.58 0.63 0.63 0.68 0.74 0.80 0.81 0.82 0.89 1.00
0.07 0.12 0.32 0.53 0.70 0.79 0.62 0.90 0.91 0.63 0.56 0.48 0.37 0.32 0.34 0.26 0.22 0.18 0.18 0.18 0.22 0.25 0.25 0.30 0.43 0.44 0.44 0.42 0.48 0.59 0.74 0.78 0.73 0.72 0.59 0.54 0.52 0.50 0.53 0.61 0.67 0.66 0.67 0.68 0.78 0.83 0.90 0.97 1.01
0.09 0.08 0.11 0.16 0.29 0.51 0.72 0.89 0.77 0.54 0.51 0.39 0.26 0.19 0.17 0.15 0.11 0.10 0.11 0.12 0.13 0.15 0.16 0.17 0.25 0.35 0.41 0.38 0.41 0.44 0.47 0.54 0.55 0.56 0.56 0.53 0.59 0.54 0.59 0.67 0.76 0.77 0.77 0.79 0.83 0.85 0.95 1.13 1.20
0.09 0.08 0.09 0.12 0.23 0.38 0.62 0.90 0.85 0.61 0.53 0.42 0.29 0.17 0.11 0.09 0.07 0.07 0.05 0.06 0.08 0.11 0.15 0.20 0.19 0.28 0.48 0.55 0.53 0.41 0.32 0.30 0.37 0.46 0.52 0.55 0.59 0.60 0.64 0.69 0.72 0.76 0.77 0.79 0.84 0.90 1.00 1.16 1.24
0.14 0.11 0.10 0.12 0.13 0.24 0.48 0.62 0.47 0.37 0.32 0.29 0.25 0.16 0.12 0.08 0.04 0.03 0.03 0.04 0.07 0.10 0.15 0.28 0.34 0.41 0.56 0.70 0.73 0.60 0.42 0.34 0.36 0.38 0.38 0.41 0.49 0.59 0.67 0.64 0.57 0.54 0.58 0.71 0.86 0.92 1.01 1.10 1.14
0.13 0.13 0.13 0.18 0.16 0.17 0.25 0.37 0.24 0.20 0.18 0.15 0.12 0.10 0.07 0.03 0.02 0.02 0.02 0.02 0.04 0.07 0.17 0.41 0.67 0.94 1.02 1.10 1.16 1.00 0.62 0.40 0.33 0.27 0.26 0.34 0.46 0.56 0.62 0.59 0.53 0.51 0.57 0.70 0.85 1.00 1.20 1.33 1.30